星链-36058(STARLINK-36058)

导读

STARLINK-36058是美国SpaceX公司于2025年11月22日发射的星链系列卫星,隶属于星链(Starlink)低轨卫星互联网星座项目。星链项目计划部署数万颗低轨卫星,旨在为全球,尤其是基础设施匮乏的偏远地区,提供高速低延迟的宽带互联网接入服务。该卫星入轨后将参与星座组网,助力实现全球网络覆盖目标。

Basic Information
目录编号:
66591
目录名称:
STARLINK-36058
国际标识:
2025-270D
轨道中心:
EARTH
卫星名称:
星链-36058
卫星全名:
星链-36058(STARLINK-36058)
卫星状态:
在轨 (已飞行286 天)
发射日期:
2025-11-22 UTC
国别 :
美国 (US)
星等 :
--
Orbit Information
数据来源 国际轨道数据
星历时间: 2026-09-04T09:17:25+0800
15小时前
查看轨道信息
半长轴: 6861.198km
偏心率: 0.0001547
轨道倾角: 43.002°
近地点辐角 266.717°
升交点赤经 128.937°
平近点角 93.350°
近地点: 481.999km
远地点: 484.123km
周期: 94.267分钟
每日圈数: 15.275763
Detailed Information
固有亮度:
5
最大亮度:
2.5
卫星平台:
Starlink V1.0
覆盖范围:
全球
运营商:
太空探索技术公司
运营商所在国:
美国
制造商(研发单位):
太空探索技术公司
制造商所在国:
美国
使用方式:
暂无
Satellite Introduction
Starlink 计划是 SpaceX 推出的全球卫星互联网项目,通过发射低轨道卫星,为全球尤其是偏远地区提供高速、低延迟的互联网服务。自 2019 年起,Starlink 已部署数千颗卫星,旨在缩小全球数字鸿沟,推动互联网普及。该项目还为军事、航空等行业提供通信支持,带来广泛经济效益。
2D Orbit Map
3D Orbit Map
Orbit Altitude Analysis Chart
Orbit Inclination Analysis Chart
Orbit Comprehensive Analysis Chart
View Comprehensive Chart
Conjunction Data List
Event ID Objects TCA Miss Dist (km) Collision Risk Probability Collision Risk Index (CRI) Action
CDM_260906-170605-948906-659121
2026-09-06T
17:06:15+0000
1.513 km
极远距离
3.733044E-6 低风险 0.46
CDM_260907-000905-948906-659121
2026-09-07T
00:09:57+0000
1.857 km
极远距离
2.059759E-6 低风险 0.41
CDM_260906-223505-948906-659121
2026-09-06T
22:35:47+0000
2.119 km
极远距离
1.492442E-6 低风险 0.38
CDM_260906-184005-948906-659121
2026-09-06T
18:40:24+0000
2.745 km
极远距离
9.370854E-7 极低风险 0.34